map of TNG home
Great Circle Mapper logo
TNG - Airport
Location
City:  Tanger, Morocco
Near (Alt.):Tangier
Name:Boukhalef
ICAO / IATA:GMTT / TNG

Details
Type:Airport (Aerodrome, Airfield)
Use:Public/Civil, International (customs port of entry)
Latitude:3543'37"N (35.726917)
Longitude:555'01"W (-5.916888)
Datum:WGS 1984
Elevation:62 ft (19 m)
Runways:2
Longest:11483 × 148 ft (3500 × 45 m), paved

Time
Time Zone:UTC+0 (DST+1)
Local Time:

Weather
METAR:GMTT 021330Z 27013KT 6000 FEW010 SCT200 26/19 Q1014 NOSIG
TAF:GMTT 021100Z 0212/0318 26009KT 5000 SCT010 BKN013
TEMPO 0213/0224 28014KT 8000 SCT016 SCT060
TEMPO 0300/0308 VRB03KT 4000 BR SCT008 SCT013 0308/0318 28010KT CAVOK

Related Locations
Nearby:
Farthest:NZRW: 12437 mi / 20016 km
Ruawai, NZ

Find:

   beyond  
but within

Other Information
Maps:
NOTAMs:
Links:
Sources:

  
flag of Morocco   

Sectional Chart

Flight Planning
at skyvector.com

Satellite Image

Google Maps Satellite View

 

Copyright © 2004-2014 Karl L. Swartz. All rights reserved.
The Great Circle Mapper name and logo are trademarks of the Great Circle Mapper.
All other trademarks mentioned herein belong to their respective owners.
Please see credits for attibutions and further copyright information.

  Follow gcmap on Facebook Follow gcmap on Twitter

hCard Microformat

Geo Microformat